Beverly, MA

8:28 AM EDT on May 27, 2017 (GMT -0400)
Beverly Municipal

Weather History for KBVY - December, 2012

Change the Weather History Date:

Saturday, December 8, 2012

  Actual Average Record
Temperature  
Mean Temperature 44 °F -  
Max Temperature 45 °F 40 °F 60 °F (1980)
Min Temperature 42 °F 25 °F 10 °F (2008)
Degree Days  
Heating Degree Days 22    
Moisture  
Dew Point 41 °F    
Average Humidity 91    
Maximum Humidity 93    
Minimum Humidity 87    
Precipitation  
Precipitation 0.27 in - - ()
Sea Level Pressure  
Sea Level Pressure 29.94 in    
Wind  
Wind Speed 2 mph (NNW)    
Max Wind Speed 9 mph    
Max Gust Speed -    
Visibility 3 miles    
Events Rain    
Averages and records for this station are not official NWS values.
T = Trace of Precipitation, MM = Missing Value Source: NWS Daily Summary

Daily Weather History Graph

Daily Weather History Graph

Search for Another Location

Airport or City:

Trip Planner

Search our weather history database for the weather conditions in past years. The results will help you decide how hot, cold, wet, or windy it might be!

Date:

Astronomy

Dec. 08, 2012 Rise Set
Actual Time 7:01 AM EST 4:10 PM EST
Civil Twilight 6:29 AM EST 4:42 PM EST
Nautical Twilight 5:54 AM EST 5:17 PM EST
Astronomical Twilight 5:19 AM EST 5:51 PM EST
Moon 1:16 AM EST (12/8) 12:43 PM EST (12/8)
Length of Visible Light 10h 12m
Length of Day
9h 08m
Waning Crescent, 28% of the Moon is Illuminated
Dec 8
Waning Crescent
Dec 13
New
Dec 20
First Quarter
Dec 28
Full
Jan 4
Last Quarter

Hourly Weather History & Observations

Time (EST) Temp. Windchill Dew Point Humidity Pressure Visibility Wind Dir Wind Speed Gust Speed Precip Events Conditions
12:53 AM 43.0 °F - 41.0 °F 93% 30.02 in 4.0 mi Calm Calm - 0.00 in Rain Light Rain
1:08 AM 42.8 °F - 41.0 °F 93% 30.03 in 3.0 mi Calm Calm - 0.01 in   Overcast
1:34 AM 42.8 °F - 41.0 °F 93% 30.02 in 4.0 mi Calm Calm - 0.01 in   Overcast
1:53 AM 43.0 °F - 41.0 °F 93% 30.01 in 4.0 mi Calm Calm - 0.01 in   Overcast
2:42 AM 42.8 °F - 39.2 °F 87% 30.02 in 2.5 mi Calm Calm - N/A   Overcast
2:53 AM 43.0 °F - 39.9 °F 89% 30.01 in 2.5 mi Calm Calm - N/A   Overcast
3:02 AM 42.8 °F - 41.0 °F 93% 30.01 in 3.0 mi Calm Calm - N/A   Overcast
3:53 AM 43.0 °F - 39.9 °F 89% 30.00 in 2.5 mi Calm Calm - 0.00 in Rain Light Rain
4:53 AM 43.0 °F - 39.9 °F 89% 29.99 in 2.0 mi Calm Calm - 0.04 in Rain Light Rain
5:10 AM 42.8 °F - 41.0 °F 93% 29.99 in 1.8 mi Calm Calm - 0.01 in Rain Light Rain
5:24 AM 42.8 °F - 41.0 °F 93% 29.99 in 2.0 mi Calm Calm - 0.02 in Rain Light Rain
5:31 AM 42.8 °F - 41.0 °F 93% 29.99 in 1.2 mi Calm Calm - 0.02 in Rain Light Rain
5:53 AM 42.8 °F - 41.0 °F 93% 30.00 in 1.8 mi Calm Calm - N/A Rain Light Rain
6:41 AM 42.8 °F - 41.0 °F 93% 30.00 in 1.0 mi Calm Calm - 0.04 in Rain Light Rain
6:49 AM 42.8 °F - 41.0 °F 93% 30.00 in 1.2 mi Calm Calm - 0.05 in Rain Light Rain
6:53 AM 43.0 °F - 41.0 °F 93% 29.99 in 1.2 mi Calm Calm - 0.05 in Rain Light Rain
7:53 AM 43.0 °F 41.3 °F 41.0 °F 93% 29.97 in 1.2 mi ENE 3.5 mph - 0.05 in Rain Light Rain
8:07 AM 42.8 °F 39.3 °F 41.0 °F 93% 29.97 in 1.8 mi NE 5.8 mph - 0.00 in Rain Light Rain
8:31 AM 42.8 °F 40.1 °F 41.0 °F 93% 29.97 in 2.0 mi NE 4.6 mph - 0.01 in   Overcast
8:53 AM 43.0 °F 38.8 °F 41.0 °F 93% 29.95 in 2.0 mi NE 6.9 mph - 0.01 in   Overcast
9:04 AM 44.6 °F 40.7 °F 41.0 °F 87% 29.96 in 1.8 mi ENE 6.9 mph - N/A   Overcast
9:53 AM 44.1 °F 40.1 °F 42.1 °F 93% 29.93 in 1.5 mi ENE 6.9 mph - 0.06 in Rain Rain
9:59 AM 44.6 °F 41.4 °F 42.8 °F 93% 29.94 in 2.0 mi NE 5.8 mph - 0.00 in Rain Light Rain
10:22 AM 44.6 °F 41.4 °F 42.8 °F 93% 29.94 in 5.0 mi North 5.8 mph - 0.02 in Rain Light Rain
10:53 AM 45.0 °F 40.1 °F 42.1 °F 90% 29.91 in 2.5 mi North 9.2 mph - 0.02 in Rain Light Rain
11:04 AM 44.6 °F 39.7 °F 42.8 °F 93% 29.91 in 4.0 mi North 9.2 mph - 0.00 in Rain Light Rain
11:19 AM 44.6 °F 39.7 °F 42.8 °F 93% 29.91 in 1.8 mi North 9.2 mph - 0.01 in Rain Light Rain
11:53 AM 44.1 °F 39.0 °F 41.0 °F 89% 29.88 in 2.5 mi NNE 9.2 mph - 0.02 in   Overcast
12:00 PM 42.8 °F 38.0 °F 41.0 °F 93% 29.88 in 3.0 mi North 8.1 mph - N/A   Overcast
12:53 PM 43.0 °F 38.2 °F 39.9 °F 89% 29.85 in 3.0 mi NNW 8.1 mph - N/A   Overcast
1:15 PM 42.8 °F 38.0 °F 39.2 °F 87% 29.86 in 2.0 mi NNE 8.1 mph - N/A   Overcast
1:53 PM 43.0 °F 41.3 °F 39.9 °F 89% 29.85 in 2.0 mi North 3.5 mph - N/A   Overcast
2:53 PM 43.0 °F 41.3 °F 39.9 °F 89% 29.86 in 1.5 mi NNW 3.5 mph - 0.01 in   Overcast
3:53 PM 43.0 °F 39.5 °F 39.9 °F 89% 29.87 in 1.5 mi NNW 5.8 mph - N/A   Overcast
4:00 PM 42.8 °F 40.1 °F 39.2 °F 87% 29.88 in 2.5 mi NNW 4.6 mph - N/A   Overcast
4:09 PM 42.8 °F 39.3 °F 39.2 °F 87% 29.88 in 4.0 mi NW 5.8 mph - N/A   Overcast
4:53 PM 42.1 °F 40.2 °F 39.9 °F 92% 29.88 in 4.0 mi WNW 3.5 mph - N/A   Overcast
5:53 PM 42.1 °F - 39.9 °F 92% 29.87 in 3.0 mi Calm Calm - N/A   Overcast
6:18 PM 42.8 °F - 39.2 °F 87% 29.89 in 2.5 mi Calm Calm - N/A   Overcast
6:53 PM 42.1 °F - 39.9 °F 92% 29.89 in 2.0 mi Calm Calm - N/A   Overcast
7:00 PM 42.8 °F - 39.2 °F 87% 29.90 in 1.5 mi Calm Calm - N/A   Overcast
7:32 PM 42.8 °F 41.1 °F 39.2 °F 87% 29.91 in 2.5 mi West 3.5 mph - N/A   Overcast
7:44 PM 42.8 °F - 39.2 °F 87% 29.92 in 2.5 mi Calm Calm - N/A   Overcast
7:53 PM 42.1 °F - 39.9 °F 92% 29.91 in 3.0 mi Calm Calm - N/A   Overcast
8:08 PM 42.8 °F - 39.2 °F 87% 29.91 in 3.0 mi Calm Calm - N/A   Overcast
8:15 PM 42.8 °F - 41.0 °F 93% 29.91 in 2.0 mi Calm Calm - N/A   Overcast
8:53 PM 43.0 °F - 39.9 °F 89% 29.90 in 2.5 mi Calm Calm - N/A   Overcast
9:17 PM 42.8 °F - 39.2 °F 87% 29.91 in 2.5 mi Calm Calm - N/A   Overcast
9:27 PM 42.8 °F 41.1 °F 41.0 °F 93% 29.92 in 3.0 mi WSW 3.5 mph - N/A   Overcast
9:53 PM 43.0 °F 40.3 °F 41.0 °F 93% 29.91 in 3.0 mi SW 4.6 mph - N/A   Overcast
10:28 PM 44.6 °F 42.2 °F 42.8 °F 93% 29.92 in 4.0 mi SW 4.6 mph - N/A   Overcast
10:53 PM 44.1 °F 42.5 °F 42.1 °F 93% 29.91 in 4.0 mi WSW 3.5 mph - N/A   Overcast
11:37 PM 44.6 °F 42.2 °F 42.8 °F 93% 29.93 in 4.0 mi West 4.6 mph - N/A   Mostly Cloudy
11:53 PM 44.1 °F 42.5 °F 42.1 °F 93% 29.93 in 5.0 mi West 3.5 mph - N/A   Partly Cloudy